Japanese version Home page |
Updated on May 22, 2023 |
Profile
|
Orbital ElementsT = 2023 Mar. 21.1633 TT Peri. = 57.1588 Node = 72.1992 2000.0 q = 0.034253 AU Incl. = 71.8551
|
Magnitudes Graphm1 = 20.0 + 5 log d + 10.0 log r
|
The orbital elements are printed on CBET 5261.
|